This is the latest recevied weather packets stored in our database for station/object K8GLX. If no packets are shown the sender has not sent any weather packets the latest 10 day(s).
| Time | Temp. | Humidity | Pressure | Rain* | Wind** | Luminosity | Snow |
|---|---|---|---|---|---|---|---|
| 1777921029 | 22.78° C | 37% | 1004.4 hPa | 0 mm | - | 720 W/m² | - |
| 1777920735 | 22.78° C | 37% | 1004.5 hPa | 0 mm | - | 726 W/m² | - |
| 1777920428 | 22.78° C | 37% | 1005.1 hPa | 0 mm | - | 736 W/m² | - |
| 1777920135 | 22.78° C | 36% | 1004.8 hPa | 0 mm | - | 743 W/m² | - |
| 1777919828 | 23.33° C | 36% | 1004.8 hPa | 0 mm | - | 744 W/m² | - |
| 1777919535 | 22.78° C | 38% | 1004.8 hPa | 0 mm | - | 754 W/m² | - |
| 1777919228 | 22.22° C | 38% | 1005 hPa | 0 mm | - | 749 W/m² | - |
| 1777918934 | 22.78° C | 37% | 1004.7 hPa | 0 mm | - | 764 W/m² | - |
| 1777918628 | 22.78° C | 39% | 1005.2 hPa | 0 mm | - | 761 W/m² | - |
| 1777918335 | 22.22° C | 37% | 1005.2 hPa | 0 mm | - | 767 W/m² | - |
| 1777918029 | 22.22° C | 38% | 1005.2 hPa | 0 mm | - | 771 W/m² | - |
| 1777917735 | 22.22° C | 39% | 1005.1 hPa | 0 mm | - | 767 W/m² | - |
| 1777917429 | 22.22° C | 40% | 1005.3 hPa | 0 mm | - | 771 W/m² | - |
| 1777917135 | 22.22° C | 39% | 1005.1 hPa | 0 mm | - | 775 W/m² | - |
| 1777916829 | 22.22° C | 39% | 1005.4 hPa | 0 mm | - | 773 W/m² | - |
| 1777916535 | 22.78° C | 39% | 1005.5 hPa | 0 mm | - | 776 W/m² | - |
| 1777916229 | 22.22° C | 39% | 1005.4 hPa | 0 mm | - | 783 W/m² | - |
| 1777916062 | 22.22° C | 39% | 1005.3 hPa | 0 mm | - | 783 W/m² | - |
| 1777915629 | 22.22° C | 39% | 1005.3 hPa | 0 mm | - | 780 W/m² | - |
| 1777915335 | 22.22° C | 39% | 1005.4 hPa | 0 mm | - | 783 W/m² | - |
| 1777915029 | 21.67° C | 37% | 1005.4 hPa | 0 mm | - | 785 W/m² | - |
| 1777914734 | 21.67° C | 39% | 1005.5 hPa | 0 mm | - | 785 W/m² | - |
| 1777914428 | 22.22° C | 40% | 1005.7 hPa | 0 mm | - | 781 W/m² | - |
| 1777914262 | 22.22° C | 38% | 1005.4 hPa | 0 mm | - | 782 W/m² | - |
| 1777913829 | 21.67° C | 38% | 1005.8 hPa | 0 mm | - | 783 W/m² | - |
* Rain latest hour (hover to see other rain measurements)
** Current wind speed in m/s (hover to see current wind gust speed)